Terminal Aerodrome Forecast
Issued by NWS Pittsburgh, PA

Current Version | Previous Version | Graphics & Text | Print | Product List | Glossary On
Versions: 1 2 3 4 5 6 7 8 9 10 11 12 13 14 15 16 17 18 19 20 21 22 23 24 25 26 27 28 29
221
FTUS41 KPBZ 271140
TAFPIT
TAF
KPIT 271140Z 2712/2818 18007KT P6SM SCT030 OVC060
     FM271600 22008KT P6SM SCT040
     FM280900 18003KT 5SM -SHRA OVC035=

USA.gov is the U.S. government's official web portal to all federal, state and local government web resources and services.